Location: Newark
(71.5000°N, 176.1997°W)
Time: 21:47:04
(UTC+00:00)

N. Korean satellite - Visible Passes

Search period start: 15 December 2019 00:00
Search period end: 25 December 2019 00:00
Orbit: 455 x 507 km, 97.2° (Epoch: 14 December)

Date Brightness Start Highest point End Pass type
(mag) Time Alt. Az. Time Alt. Az. Time Alt. Az.
15 Dec 7.9 01:06:13 10° ENE 01:08:58 20° NNE 01:11:41 10° NNW visible
15 Dec 7.0 02:38:17 10° ESE 02:41:46 41° NE 02:45:11 10° NNW visible
15 Dec 7.0 04:11:27 10° S 04:15:06 64° WSW 04:18:44 10° NNW visible
15 Dec 9.4 05:46:22 10° SW 05:49:09 20° W 05:51:55 10° NW visible
15 Dec 9.0 16:56:07 10° NE 16:59:02 23° E 17:01:53 10° SE visible
15 Dec 6.6 18:29:23 10° NNE 18:32:59 77° ESE 18:36:31 10° SSW visible
15 Dec 7.1 20:02:55 10° NNE 20:06:14 35° NW 20:09:29 10° WSW visible
15 Dec 8.0 21:36:22 10° NNE 21:38:56 19° NNW 21:41:29 10° WNW visible
16 Dec 7.3 02:13:08 10° ESE 02:16:26 33° NE 02:19:41 10° NNW visible
16 Dec 6.5 03:45:56 10° SSE 03:49:37 89° W 03:53:15 10° NNW visible
16 Dec 8.8 05:20:17 10° SSW 05:23:27 27° W 05:26:35 10° NNW visible
16 Dec 9.5 16:30:53 10° NE 16:33:18 17° E 16:35:41 10° SE visible
16 Dec 7.2 18:03:55 10° NNE 18:07:27 54° ESE 18:10:55 10° S visible
16 Dec 6.7 19:37:26 10° NNE 19:40:53 46° NW 19:44:16 10° SW visible
16 Dec 7.8 21:10:57 10° NNE 21:13:43 21° NNW 21:16:28 10° W visible
17 Dec 7.5 01:48:02 10° E 01:51:08 27° NE 01:54:12 10° NNW visible
17 Dec 6.5 03:20:32 10° SE 03:24:09 67° ENE 03:27:45 10° NNW visible
17 Dec 8.2 04:54:24 10° SSW 04:57:49 36° W 05:01:12 10° NNW visible
17 Dec 10.0 06:30:39 10° W 06:32:11 12° WNW 06:33:45 10° NW visible
17 Dec 9.9 16:05:53 10° NE 16:07:30 13° ENE 16:09:05 10° ESE visible
17 Dec 8.0 17:38:30 10° NNE 17:41:52 38° E 17:45:11 10° S visible
17 Dec 6.4 19:11:57 10° NNE 19:15:30 62° WNW 19:18:57 10° SW visible
17 Dec 7.6 20:45:30 10° NNE 20:48:28 25° NW 20:51:24 10° W visible
18 Dec 7.8 01:23:00 10° E 01:25:52 22° NNE 01:28:42 10° NNW visible
18 Dec 6.7 02:55:14 10° SE 02:58:46 49° NE 03:02:15 10° NNW visible
18 Dec 7.5 04:28:39 10° S 04:32:13 51° WSW 04:35:45 10° NNW visible
18 Dec 9.7 06:04:01 10° WSW 06:06:24 16° W 06:08:46 10° NW visible
18 Dec 8.6 17:13:07 10° NNE 17:16:14 28° E 17:19:18 10° SSE visible
18 Dec 6.4 18:46:27 10° NNE 18:50:03 85° WNW 18:53:33 10° SSW visible
18 Dec 7.3 20:20:01 10° NNE 20:23:11 30° NW 20:26:18 10° WSW visible
18 Dec 8.0 21:53:25 10° NNE 21:55:49 17° NNW 21:58:12 10° WNW visible
19 Dec 7.9 00:58:00 10° ENE 01:00:38 19° NNE 01:03:15 10° NNW visible
19 Dec 7.1 02:30:01 10° ESE 02:33:24 38° NE 02:36:45 10° NNW visible
19 Dec 6.8 04:03:03 10° SSE 04:06:41 72° WSW 04:10:17 10° NNW visible
19 Dec 9.2 05:37:47 10° SW 05:40:40 22° W 05:43:32 10° NW visible
19 Dec 9.2 16:47:48 10° NE 16:50:31 20° E 16:53:14 10° SE visible
19 Dec 6.8 18:21:00 10° NNE 18:24:33 69° ESE 18:28:02 10° SSW visible
19 Dec 7.0 19:54:31 10° NNE 19:57:51 38° NW 20:01:08 10° WSW visible
19 Dec 7.9 21:28:01 10° NNE 21:30:37 19° NNW 21:33:10 10° WNW visible
20 Dec 7.4 02:04:52 10° ESE 02:08:04 30° NE 02:11:14 10° NNW visible
20 Dec 6.5 03:37:35 10° SSE 03:41:12 83° ENE 03:44:48 10° NNW visible
20 Dec 8.6 05:11:45 10° SSW 05:14:59 29° W 05:18:11 10° NNW visible
20 Dec 9.6 16:22:37 10° NE 16:24:46 15° E 16:26:54 10° ESE visible
20 Dec 7.5 17:55:33 10° NNE 17:59:00 48° ESE 18:02:23 10° S visible
20 Dec 6.6 19:29:02 10° NNE 19:32:29 50° NW 19:35:53 10° SW visible
20 Dec 7.7 21:02:34 10° NNE 21:05:22 22° NNW 21:08:08 10° W visible
21 Dec 7.6 01:39:48 10° E 01:42:46 25° NE 01:45:44 10° NNW visible
21 Dec 6.5 03:12:12 10° SE 03:15:45 60° ENE 03:19:17 10° NNW visible
21 Dec 8.0 04:45:55 10° S 04:49:21 40° W 04:52:46 10° NNW visible
21 Dec 9.9 06:21:52 10° WSW 06:23:41 13° WNW 06:25:29 10° NW visible
21 Dec 10.0 15:57:50 10° NE 15:58:57 11° ENE 16:00:04 10° E visible
21 Dec 8.2 17:30:07 10° NNE 17:33:24 34° E 17:36:37 10° SSE visible
21 Dec 6.4 19:03:32 10° NNE 19:07:04 68° WNW 19:10:32 10° SW visible
21 Dec 7.5 20:37:06 10° NNE 20:40:06 26° NW 20:43:04 10° W visible
21 Dec 8.1 22:10:26 10° NNE 22:12:41 16° NNW 22:14:54 10° NW visible
22 Dec 7.8 01:14:46 10° E 01:17:31 21° NNE 01:20:15 10° NNW visible
22 Dec 6.8 02:46:55 10° SE 02:50:22 45° NE 02:53:47 10° NNW visible
22 Dec 7.2 04:20:13 10° S 04:23:47 56° WSW 04:27:18 10° NNW visible
22 Dec 9.5 05:55:22 10° SW 05:57:54 18° W 06:00:24 10° NW visible
22 Dec 8.8 17:04:45 10° NNE 17:07:43 25° E 17:10:40 10° SSE visible
22 Dec 6.4 18:38:03 10° NNE 18:41:36 86° ESE 18:45:05 10° SSW visible
22 Dec 7.2 20:11:37 10° NNE 20:14:48 32° NW 20:17:56 10° WSW visible
22 Dec 8.0 21:45:03 10° NNE 21:47:28 18° NNW 21:49:52 10° WNW visible
23 Dec 7.1 02:21:43 10° ESE 02:25:01 35° NE 02:28:16 10° NNW visible
23 Dec 6.6 03:54:38 10° SSE 03:58:15 80° WSW 04:01:49 10° NNW visible
23 Dec 9.0 05:29:11 10° SW 05:32:10 24° W 05:35:06 10° NW visible
23 Dec 9.3 16:39:28 10° NE 16:42:00 18° E 16:44:31 10° SE visible
23 Dec 7.0 18:12:36 10° NNE 18:16:05 61° ESE 18:19:32 10° S visible
23 Dec 6.8 19:46:07 10° NNE 19:49:28 41° NW 19:52:44 10° WSW visible
23 Dec 7.8 21:19:37 10° NNE 21:22:15 20° NNW 21:24:51 10° WNW visible
24 Dec 7.4 01:56:36 10° E 01:59:41 28° NE 02:02:45 10° NNW visible
24 Dec 6.4 03:29:11 10° SSE 03:32:47 75° ENE 03:36:20 10° NNW visible
24 Dec 8.4 05:03:14 10° SSW 05:06:30 32° W 05:09:44 10° NNW visible
24 Dec 10.1 06:40:08 10° W 06:40:57 11° WNW 06:41:48 10° WNW visible
24 Dec 9.8 16:14:21 10° NE 16:16:13 14° ENE 16:18:04 10° ESE visible
24 Dec 7.7 17:47:08 10° NNE 17:50:31 43° ESE 17:53:50 10° S visible
24 Dec 6.5 19:20:36 10° NNE 19:24:04 55° WNW 19:27:28 10° SW visible
24 Dec 7.6 20:54:09 10° NNE 20:57:00 23° NW 20:59:48 10° W visible
